Location: Downe
(51.3167°N, 0.0500°E)
Time: 16:50:09
(UTC+00:00)

ADEOS - Pass Details

Date: 17 November 2019
Orbit: 792 x 794 km, 98.8° (Epoch: 14 December)

Event Time Altitude Azimuth Distance (km) Brightness Sun altitude
Rises 04:51:15 0° 11° (N) 3,310 6.9 -22.9°
Reaches altitude 10° 04:53:41 10° 4° (N) 2,376 6.1 -22.5°
Enters shadow 04:57:52 39° 316° (NW) 1,177 4.1 -21.9°
